User: anonymous   Login
Location: Wildcat Hills Observatory
(41.6350°N, 103.6812°W)
Time: 08:10:01
(UTC-06:00)
Language:

Cosmos 1634 Rocket - Orbit

View from above orbital plane
View from above orbital plane
View from above satellite
View from above satellite

Ground track
Ground track

The orbit data is extracted from the following two-line orbital elements,

1 15598U 85022B   16207.53084501 -.00000018  00000-0 -33471-4 0  9990
2 15598  82.9378 349.8988 0021018 304.8036 123.7518 13.76539610575524
Epoch (UTC): 25 July 2016 12:44:25
Eccentricity: 0.0021018
inclination: 82.9378°
perigee height: 961 km
apogee height: 991 km
right ascension of ascending node: 349.8988°
argument of perigee: 304.8036°
revolutions per day: 13.76539610
mean anomaly at epoch: 123.7518°
orbit number at epoch: 57552

The dashed part of the orbit path shows where the satellite is in the earth's shadow,  

DLR